Mount Pleasant, Falkland Islands

11:37 AM FKST on February 08, 2016 (GMT -0300)
Mount Pleasant

Weather History for EGYP - October, 2012

Change the Weather History Date:

Wednesday, October 17, 2012

  Actual Average Record
Temperature  
Mean Temperature 47 °F -  
Max Temperature 54 °F - - ()
Min Temperature 40 °F - - ()
Degree Days  
Heating Degree Days 18    
Moisture  
Dew Point 38 °F    
Average Humidity 74    
Maximum Humidity 87    
Minimum Humidity 51    
Precipitation  
Precipitation 0.00 in - - ()
Sea Level Pressure  
Sea Level Pressure 29.71 in    
Wind  
Wind Speed 15 mph ()    
Max Wind Speed 28 mph    
Max Gust Speed -    
Visibility 7.1 miles    
Events      
T = Trace of Precipitation, MM = Missing Value Source: Averaged Metar Reports

Daily Weather History Graph

Daily Weather History Graph

Search for Another Location

Airport or City:

Trip Planner

Search our weather history database for the weather conditions in past years. The results will help you decide how hot, cold, wet, or windy it might be!

Date:

Astronomy

Oct. 17, 2012 Rise Set
Actual Time 5:44 AM FKST 7:34 PM FKST
Civil Twilight 5:09 AM FKST 8:10 PM FKST
Nautical Twilight 4:25 AM FKST 8:54 PM FKST
Astronomical Twilight 3:35 AM FKST 9:44 PM FKST
Moon 6:42 AM FKST (10/17) 10:48 PM FKST (10/17)
Length of Visible Light 15h 01m
Length of Day
13h 50m
Waxing Crescent, 6% of the Moon is Illuminated
Oct 17
Waxing Crescent
Oct 22
First Quarter
Oct 29
Full
Nov 6
Last Quarter
Nov 13
New

Hourly Weather History & Observations

Time (FKST) Temp. Windchill Dew Point Humidity Pressure Visibility Wind Dir Wind Speed Gust Speed Precip Events Conditions
12:50 AM 42.8 °F 35.1 °F 37.4 °F 81% 29.77 in - WNW 16.1 mph - N/A   Clear
1:50 AM 41.0 °F 33.1 °F 37.4 °F 87% 29.77 in - WNW 15.0 mph - N/A   Clear
2:50 AM 42 °F - 37 °F 78% 29.78 in 12 mi WNW 13.8 mph - -   Scattered Clouds
2:50 AM 42.8 °F 35.8 °F 37.4 °F 81% 29.77 in - WNW 13.8 mph - N/A   Clear
3:50 AM 42.8 °F 34.3 °F 37.4 °F 81% 29.74 in - WNW 19.6 mph - N/A   Clear
4:50 AM 42.8 °F 34.0 °F 37.4 °F 81% 29.74 in 6.2 mi WNW 20.7 mph - N/A   Partly Cloudy
5:50 AM 41.0 °F 31.6 °F 37.4 °F 87% 29.74 in 6.2 mi WNW 20.7 mph - N/A   Partly Cloudy
6:50 AM 42.8 °F 34.3 °F 39.2 °F 87% 29.74 in 6.2 mi WNW 19.6 mph - N/A   Partly Cloudy
7:50 AM 46.4 °F 38.3 °F 39.2 °F 76% 29.74 in 6.2 mi West 23.0 mph - N/A   Partly Cloudy
8:50 AM 48 °F - 37 °F 57% 29.75 in 37 mi West 27.6 mph - -   Mostly Cloudy
8:50 AM 48.2 °F - 37.4 °F 66% 29.74 in 6.2 mi West 27.6 mph - N/A   Scattered Clouds
9:50 AM 50.0 °F - 37.4 °F 62% 29.74 in 6.2 mi West 26.5 mph - N/A   Mostly Cloudy
10:50 AM 51.8 °F - 37.4 °F 58% 29.74 in 6.2 mi WSW 25.3 mph - N/A   Mostly Cloudy
11:50 AM 53.6 °F - 37.4 °F 54% 29.71 in 6.2 mi WSW 24.2 mph - N/A   Mostly Cloudy
12:50 PM 53.6 °F - 35.6 °F 51% 29.71 in 6.2 mi SW 23.0 mph - N/A   Scattered Clouds
1:50 PM 53.6 °F - 37.4 °F 54% 29.68 in 6.2 mi SSW 17.3 mph - N/A   Scattered Clouds
2:50 PM 49 °F - 38 °F 55% 29.69 in 37 mi South 18.4 mph - -   Mostly Cloudy
2:50 PM 50.0 °F - 37.4 °F 62% 29.68 in 6.2 mi South 18.4 mph - N/A   Mostly Cloudy
3:50 PM 48.2 °F - 39.2 °F 71% 29.68 in 6.2 mi South 13.8 mph - N/A   Mostly Cloudy
4:50 PM 46.4 °F 42.4 °F 41.0 °F 81% 29.65 in 6.2 mi SE 8.1 mph - N/A   Scattered Clouds
5:50 PM 44.6 °F 40.7 °F 39.2 °F 81% 29.65 in 6.2 mi ESE 6.9 mph - N/A   Scattered Clouds
6:50 PM 42.8 °F 40.1 °F 39.2 °F 87% 29.65 in 6.2 mi SE 4.6 mph - N/A   Scattered Clouds
8:50 PM 42 °F - 38 °F 80% 29.68 in 19 mi WSW 9.2 mph - -   Scattered Clouds
8:50 PM 42.8 °F 37.5 °F 37.4 °F 81% 29.65 in 6.2 mi WSW 9.2 mph - N/A   Mostly Cloudy
9:50 PM 41.0 °F 34.7 °F 35.6 °F 81% 29.65 in 6.2 mi West 10.4 mph - N/A   Mostly Cloudy
10:50 PM 41.0 °F 35.2 °F 37.4 °F 87% 29.62 in 6.2 mi West 9.2 mph - N/A   Mostly Cloudy
11:50 PM 41.0 °F 35.2 °F 37.4 °F 87% 29.62 in 6.2 mi WNW 9.2 mph - N/A   Mostly Cloudy